This demonstration page uses our WeatherBlox Daily Observations layout. Learn more.

Left ArrowRight Arrow

34.74481, -87.66753

Hourly Observations for May 24, 2020

Temp ( °F °C ) Dew Point ( °F °C ) Humidity (%) Winds ( mph kmh ) Pressure ( in mb ) Visibility ( mi km ) Precip ( " mm )
12:53 am 00:53 Clear 70 21.1 65 18.3 84 84 SE 5 7 30.03 1017 10 16 0.00 0.00
1:53 am 01:53 Clear 69 20.6 65 18.3 87 87 SE 7 11 30.03 1017 10 16 0.00 0.00
2:53 am 02:53 Clear 69 20.6 63 17.2 81 81 SSE 5 7 30.03 1017 10 16 0.00 0.00
3:53 am 03:53 Mostly Cloudy 69 20.6 64 17.8 84 84 SE 3 6 30.02 1017 10 16 0.00 0.00
4:53 am 04:53 Mostly Clear 68 20 64 17.8 87 87 NNE 5 7 30.03 1017 10 16 0.00 0.00
5:53 am 05:53 Partly Cloudy 68 20 65 18.3 90 90 Calm 30.04 1017 10 16 0.00 0.00
6:53 am 06:53 Sunny 69 20.6 64 17.8 84 84 SE 5 7 30.04 1017 10 16 0.00 0.00
7:53 am 07:53 Partly Cloudy 72 22.2 65 18.3 79 79 SE 5 7 30.05 1018 10 16 0.00 0.00
8:53 am 08:53 Mostly Sunny 76 24.4 65 18.3 69 69 SSE 3 6 30.06 1018 10 16 0.00 0.00
9:53 am 09:53 Sunny 79 26.1 66 18.9 65 65 S 3 6 30.05 1018 10 16 0.00 0.00
10:53 am 10:53 Mostly Sunny 81 27.2 67 19.4 62 62 Calm 30.05 1018 10 16 0.00 0.00
11:53 am 11:53 Mostly Cloudy 84 28.9 67 19.4 57 57 Calm 30.04 1017 10 16 0.00 0.00
12:53 pm 12:53 Partly Cloudy 85 29.4 68 20 57 57 SSW 3 6 30.04 1017 10 16 0.00 0.00
1:53 pm 13:53 Mostly Sunny 86 30 66 18.9 51 51 S 5 7 30.02 1017 10 16 0.00 0.00
2:53 pm 14:53 Sunny 87 30.6 67 19.4 51 51 SSE 7 11 30.00 1016 10 16 0.00 0.00
3:53 pm 15:53 Sunny 88 31.1 67 19.4 50 50 SSW 8 13 29.97 1015 10 16 0.00 0.00
4:53 pm 16:53 Sunny 87 30.6 67 19.4 51 51 SSW 5 7 29.95 1014 10 16 0.00 0.00
5:53 pm 17:53 Mostly Sunny 87 30.6 65 18.3 48 48 ESE 6 9 29.93 1013 10 16 0.00 0.00
6:53 pm 18:53 Sunny 85 29.4 67 19.4 55 55 E 7 11 29.91 1013 10 16 0.00 0.00
7:53 pm 19:53 Sunny 81 27.2 69 20.6 67 67 E 3 6 29.93 1014 10 16 0.00 0.00
8:53 pm 20:53 Clear 77 25 69 20.6 77 77 Calm 29.95 1014 10 16 0.00 0.00
9:53 pm 21:53 Clear 75 23.9 69 20.6 82 82 Calm 29.96 1015 10 16 0.00 0.00
10:53 pm 22:53 Clear 74 23.3 69 20.6 85 85 ENE 5 7 29.97 1015 10 16 0.00 0.00
11:53 pm 23:53 Clear 72 22.2 68 20 87 87 Calm 29.96 1015 10 16 0.00 0.00

Powered by AerisWeather